| time (UTC) | temp F | wind direction | speed knots | gust knots | rain 1hr in | rain 24hr in | rain mn in | humidity % | barometer mb |
| 20260509000728 | 83 | 126 | 5.2 | 0.0 | 0.00 | 0.00 | 0.00 | 81 | 1012.0 |
| 20260508233723 | 83 | 124 | 5.2 | 0.0 | 0.00 | 0.00 | 0.00 | 81 | 1012.0 |
| 20260508230723 | 81 | 125 | 5.2 | 0.0 | 0.00 | 0.00 | 0.00 | 79 | 1012.0 |
| 20260508223723 | 82 | 125 | 5.2 | 0.0 | 0.00 | 0.00 | 0.00 | 86 | 1012.0 |
| 20260508220723 | 81 | 131 | 5.2 | 0.0 | 0.00 | 0.00 | 0.00 | 81 | 1011.0 |
| 20260508213724 | 82 | 131 | 5.2 | 0.0 | 0.00 | 0.00 | 0.00 | 85 | 1011.0 |
| 20260508210723 | 79 | 126 | 5.2 | 0.0 | 0.00 | 0.00 | 0.00 | 76 | 1011.0 |
| 20260508203723 | 80 | 126 | 5.2 | 0.0 | 0.00 | 0.00 | 0.00 | 84 | 1011.0 |
| 20260508200724 | 79 | 136 | 6.1 | 0.0 | 0.00 | 0.00 | 0.00 | 78 | 1011.0 |
| 20260508193723 | 80 | 136 | 6.1 | 0.0 | 0.00 | 0.00 | 0.00 | 86 | 1011.0 |
| 20260508190723 | 79 | 131 | 5.2 | 0.0 | 0.00 | 0.00 | 0.00 | 79 | 1011.0 |
| 20260508183723 | 80 | 131 | 5.2 | 0.0 | 0.00 | 0.00 | 0.00 | 87 | 1011.0 |
| 20260508180723 | 81 | 145 | 4.3 | 0.0 | 0.00 | 0.00 | 0.00 | 86 | 1011.0 |
| 20260508173724 | 81 | 152 | 4.3 | 0.0 | 0.00 | 0.00 | 0.00 | 86 | 1011.0 |
| 20260508170724 | 80 | 178 | 4.3 | 0.0 | 0.00 | 0.00 | 0.00 | 81 | 1012.0 |
| 20260508163723 | 80 | 178 | 4.3 | 0.0 | 0.00 | 0.00 | 0.00 | 87 | 1012.0 |
| 20260508160728 | 80 | 167 | 4.3 | 0.0 | 0.00 | 0.00 | 0.00 | 82 | 1012.0 |
| 20260508153723 | 81 | 167 | 4.3 | 0.0 | 0.00 | 0.00 | 0.00 | 89 | 1013.0 |
| 20260508150723 | 81 | 168 | 3.5 | 0.0 | 0.00 | 0.00 | 0.00 | 88 | 1013.0 |
| 20260508143723 | 81 | 168 | 3.5 | 0.0 | 0.00 | 0.00 | 0.00 | 89 | 1013.0 |
| 20260508140723 | 82 | 158 | 3.5 | 0.0 | 0.00 | 0.00 | 0.00 | 88 | 1012.0 |
| 20260508133723 | 82 | 158 | 3.5 | 0.0 | 0.00 | 0.00 | 0.00 | 88 | 1012.0 |
| 20260508130723 | 82 | 136 | 2.6 | 0.0 | 0.00 | 0.00 | 0.00 | 82 | 1012.0 |
| 20260508123724 | 82 | 136 | 2.6 | 0.0 | 0.00 | 0.00 | 0.00 | 85 | 1012.0 |
| 20260508120724 | 82 | 95 | 0.9 | 0.0 | 0.00 | 0.00 | 0.00 | 81 | 1011.0 |
| 20260508113723 | 82 | 90 | 0.9 | 0.0 | 0.00 | 0.00 | 0.00 | 82 | 1011.0 |
| 20260508110723 | 82 | 353 | 1.7 | 0.0 | 0.00 | 0.00 | 0.00 | 72 | 1010.0 |
| 20260508103729 | 82 | 353 | 1.7 | 0.0 | 0.00 | 0.00 | 0.00 | 81 | 1010.0 |
| 20260508100723 | 82 | 1 | 4.3 | 0.0 | 0.00 | 0.00 | 0.00 | 72 | 1009.0 |
| 20260508093723 | 82 | 1 | 4.3 | 0.0 | 0.00 | 0.00 | 0.00 | 79 | 1009.0 |
| 20260508090723 | 83 | 356 | 8.7 | 0.0 | 0.00 | 0.00 | 0.00 | 73 | 1009.0 |
| 20260508083723 | 83 | 356 | 8.7 | 0.0 | 0.00 | 0.00 | 0.00 | 79 | 1009.0 |
| 20260508080723 | 84 | 342 | 9.6 | 0.0 | 0.00 | 0.00 | 0.00 | 77 | 1008.0 |
| 20260508073723 | 84 | 342 | 9.6 | 0.0 | 0.00 | 0.00 | 0.00 | 79 | 1009.0 |
| 20260508070723 | 85 | 331 | 12.2 | 0.0 | 0.00 | 0.00 | 0.00 | 82 | 1008.0 |
| 20260508063723 | 84 | 331 | 12.2 | 0.0 | 0.00 | 0.00 | 0.00 | 71 | 1009.0 |
| 20260508060723 | 86 | 333 | 11.3 | 0.0 | 0.00 | 0.00 | 0.00 | 73 | 1009.0 |
| 20260508053723 | 86 | 335 | 12.2 | 0.0 | 0.00 | 0.00 | 0.00 | 73 | 1009.0 |
| 20260508050723 | 85 | 345 | 9.6 | 0.0 | 0.00 | 0.00 | 0.00 | 82 | 1009.0 |
| 20260508043723 | 85 | 345 | 9.6 | 0.0 | 0.00 | 0.00 | 0.00 | 73 | 1009.0 |
| 20260508040723 | 85 | 2 | 7.0 | 0.0 | 0.00 | 0.00 | 0.00 | 88 | 1010.0 |
| 20260508033723 | 85 | 2 | 7.0 | 0.0 | 0.00 | 0.00 | 0.00 | 72 | 1010.0 |
| 20260508030723 | 84 | 21 | 6.1 | 0.0 | 0.00 | 0.00 | 0.00 | 88 | 1011.0 |
| 20260508023723 | 84 | 21 | 6.1 | 0.0 | 0.00 | 0.00 | 0.00 | 76 | 1011.0 |
| 20260508020723 | 85 | 79 | 4.3 | 0.0 | 0.00 | 0.00 | 0.00 | 90 | 1011.0 |
| 20260508013723 | 86 | 79 | 4.3 | 0.0 | 0.00 | 0.00 | 0.00 | 80 | 1012.0 |
| 20260508010723 | 83 | 124 | 5.2 | 0.0 | 0.00 | 0.00 | 0.00 | 91 | 1012.0 |
| 20260508003723 | 85 | 124 | 5.2 | 0.0 | 0.00 | 0.00 | 0.00 | 81 | 1012.0 |